Back to catalog

SL-14 DEB

AlivePO
NORAD 35520·DEBRIS·🇷🇺 Russia

Launched Aug 18, 1987 from Plesetsk Cosmodrome

Loading…

Next Passes (next 24 hours)

TLE

FreshSource: Space-Track

Epoch: Sep 13, 2026, 04:05 UTC

1 35520U 87068CP  26256.17051106  .00000138  00000-0  10504-3 0  9991
2 35520  82.5475 199.6956 0010970 128.4965 295.0753 13.87125372657834

Track SL-14 DEB in real time with AllMySat

Download on the App Store